Regional Weather Roundup
Issued by NWS Green Bay, WI

Home | Current Version | Previous Version | Text Only | Print | Product List | Glossary On
Versions: 1 2 3 4 5 6 7 8 9 10 11 12 13 14 15 16 17 18 19 20 21 22 23 24 25 26 27 28 29 30 31 32 33 34 35 36 37 38 39 40 41 42 43 44 45 46 47 48 49 50
000
ASUS43 KGRB 201459
RWRGRB

NORTH-CENTRAL AND NORTHEAST WISCONSIN REGIONAL WEATHER ROUNDUP
NATIONAL WEATHER SERVICE GREEN BAY WI
900 AM CST THU NOV 20 2014

WIZ005-009-010>012-018-019-201600-
NORTH CENTRAL WISCONSIN

CITY           SKY/WX    TMP DP  RH WIND       PRES   REMARKS
IRONWOOD       CLOUDY     9   7  92 W15       29.83R VSB 1/2 WCI  -8
MANITOWISH WTR NOT AVBL
ARBOR VITAE    NOT AVBL
EAGLE RIVER    NOT AVBL
LAND O LAKES   NOT AVBL
RHINELANDER    SUNNY      7  -1  70 W15G23    29.85R WCI -10
PHILLIPS       PTSUNNY    6   0  76 NW7       29.89R WCI  -6
ANTIGO         NOT AVBL
TOMAHAWK       NOT AVBL
MERRILL        NOT AVBL
$$

WIZ013-073-201600-
NORTHEAST WISCONSIN

CITY           SKY/WX    TMP DP  RH WIND       PRES   REMARKS
IRON MOUNTAIN  SUNNY     11   1  64 W8        29.81R WCI  -1
MARINETTE      SUNNY     14   3  62 NW9G20    29.87R WCI   2
$$

WIZ017-030-035>037-045-201600-
CENTRAL WISCONSIN

CITY           SKY/WX    TMP DP  RH WIND       PRES   REMARKS
MEDFORD        NOT AVBL
WAUSAU         SUNNY      9   0  67 NW13      29.92R WCI  -7
MOSINEE        SUNNY      9   1  72 W16G22    29.94R WCI  -9
MARSHFIELD     SUNNY     10   0  63 NW17G25   29.95R WCI  -8
WISC RAPIDS    MOSUNNY   12   1  61 NW14      29.99R WCI  -3
STEVENS POINT  NOT AVBL
WAUPACA        NOT AVBL
SHAWANO        SUNNY     15   4  62 W12G21    29.93R WCI   2
CLINTONVILLE   SUNNY     14   3  62 W16G26    29.94R WCI  -2
$$

WIZ038-039-048-051-201600-
FOX VALLEY

CITY           SKY/WX    TMP DP  RH WIND       PRES   REMARKS
NWS GREEN BAY  SUNNY     16   4  59 W18G25    29.93R WCI   0
APPLETON       MOSUNNY   16   1  53 NW17      29.93R WCI   0
OSHKOSH        CLOUDY    17   7  64 W18G25    29.95R WCI   1
FOND DU LAC    SUNNY     17   6  62 W17G28    29.96R WCI   1
$$

WIZ022-050-052-201600-
EAST CENTRAL WISCONSIN

CITY           SKY/WX    TMP DP  RH WIND       PRES   REMARKS
STURGEON BAY   CLOUDY    16   3  57 W18G29    29.88R WCI  -1
MANITOWOC      NOT AVBL
SHEBOYGAN      PTSUNNY   18   7  62 W17G30    29.93R WCI   3
$$

LMZ563-521-522-541>543-201600-
LAKESHORE

STATION/POSITION TIME  TEMP    WIND        PRES    VSBY  WAVE
                       AIR SEA DIR/SP/G                  HT/PER
                 (UTC) (F)     (DEG/KT/KT) (MB)    (MI)  (FT/S)
SHEBOYGAN LKSHOR 1400   19 33  280/ 16/ 21 1014.6R
KEWAUNEE LKSHORE 1400   16     280/  8/ 16 1011.8R
NORTHPORT PIER   1400   17     290/ 11/ 20 1010.8R
N MID LAKE BUOY  1400   21 42  300/ 21/ 27 1009.8R         5/ 6
SISTER BAY LKSHO 1400          300/ 28/ 34   N/A
CHAMBERS ISLAND  1400   17     260/  7/ 16 1011.5R
MENOMINEE LKSHOR 1400   14     260/ 11/ 19 1012.4R
$$



USA.gov is the U.S. government's official web portal to all federal, state and local government web resources and services.